Pella, IA

2:22 AM CST on January 24, 2017 (GMT -0600)
Pella Municipal

Weather History for KPEA - February, 2014

Change the Weather History Date:

Thursday, February 27, 2014

  Actual Average (KOXV) Record (KOXV)
Temperature  
Mean Temperature 8 °F -  
Max Temperature 16 °F 42 °F 71 °F (1976)
Min Temperature -1 °F 24 °F -10 °F (1962)
Degree Days  
Heating Degree Days 58    
Moisture  
Dew Point -7 °F    
Average Humidity 56    
Maximum Humidity 71    
Minimum Humidity 40    
Precipitation  
Precipitation 0.00 in - - ()
Sea Level Pressure  
Sea Level Pressure 30.13 in    
Wind  
Wind Speed 10 mph (NNW)    
Max Wind Speed 24 mph    
Max Gust Speed 32 mph    
Visibility 10 miles    
Events      
Averages and records for this station are not official NWS values.
T = Trace of Precipitation, MM = Missing Value Source: NWS Daily Summary

Daily Weather History Graph

Daily Weather History Graph

Search for Another Location

Airport or City:

Trip Planner

Search our weather history database for the weather conditions in past years. The results will help you decide how hot, cold, wet, or windy it might be!

Date:

Astronomy

Feb. 27, 2014 Rise Set
Actual Time 6:49 AM CST 6:00 PM CST
Civil Twilight 6:21 AM CST 6:28 PM CST
Nautical Twilight 5:49 AM CST 7:00 PM CST
Astronomical Twilight 5:17 AM CST 7:32 PM CST
Moon 5:23 AM CST (2/27) 4:25 PM CST (2/27)
Length of Visible Light 12h 06m
Length of Day
11h 10m
Waning Crescent, 4% of the Moon is Illuminated
Feb 27
Waning Crescent
Mar 1
New
Mar 8
First Quarter
Mar 16
Full
Mar 23
Last Quarter

Hourly Weather History & Observations

Time (CST) Temp. Windchill Dew Point Humidity Pressure Visibility Wind Dir Wind Speed Gust Speed Precip Events Conditions
12:15 AM 16.0 °F 0.1 °F 8.1 °F 71% 29.94 in 10.0 mi North 17.3 mph 28.8 mph N/A   Clear
12:35 AM 14.2 °F -4.5 °F 4.3 °F 65% 29.95 in 10.0 mi North 23.0 mph 31.1 mph N/A   Clear
12:55 AM 12.9 °F -0.9 °F 4.1 °F 68% 29.97 in 10.0 mi NNW 11.5 mph 26.5 mph N/A   Clear
1:15 AM 12.0 °F -4.5 °F 4.1 °F 71% 29.98 in 10.0 mi NNW 16.1 mph 24.2 mph N/A   Clear
1:35 AM 11.3 °F -5.5 °F 3.2 °F 70% 30.00 in 10.0 mi NNW 16.1 mph 24.2 mph N/A   Clear
1:55 AM 10.2 °F -9.7 °F 0.3 °F 64% 30.00 in 10.0 mi NNW 23.0 mph 26.5 mph N/A   Clear
2:15 AM 9.5 °F -7.8 °F -0.9 °F 63% 30.01 in 10.0 mi NNW 16.1 mph 27.6 mph N/A   Clear
2:35 AM 9.5 °F -6.6 °F 0.3 °F 66% 30.02 in 10.0 mi NW 13.8 mph 20.7 mph N/A   Clear
2:55 AM 9.1 °F -7.0 °F -2.4 °F 60% 30.02 in 10.0 mi NW 13.8 mph 24.2 mph N/A   Clear
3:15 AM 6.8 °F -14.7 °F -11.4 °F 43% 30.03 in 10.0 mi NNW 24.2 mph 32.2 mph N/A   Clear
3:35 AM 5.5 °F -15.5 °F -11.0 °F 47% 30.04 in 10.0 mi NNW 21.9 mph 29.9 mph N/A   Clear
3:55 AM 4.8 °F -14.9 °F -11.4 °F 47% 30.04 in 10.0 mi North 18.4 mph 28.8 mph N/A   Clear
4:15 AM 4.1 °F -12.0 °F -10.3 °F 51% 30.06 in 10.0 mi North 11.5 mph - N/A   Clear
4:30 AM 3.2 °F -10.3 °F -9.4 °F 56% 30.07 in 10.0 mi NNW 8.1 mph - N/A   Clear
4:55 AM 2.1 °F -9.0 °F -8.1 °F 62% 30.09 in 10.0 mi NW 5.8 mph - N/A   Clear
5:15 AM 1.9 °F -16.9 °F -8.5 °F 62% 30.09 in 10.0 mi NNW 15.0 mph 21.9 mph N/A   Clear
5:35 AM 1.4 °F -15.3 °F -9.4 °F 61% 30.10 in 10.0 mi North 11.5 mph 20.7 mph N/A   Clear
5:55 AM 0.5 °F -19.4 °F -9.0 °F 64% 30.12 in 10.0 mi NNW 16.1 mph 20.7 mph N/A   Clear
6:15 AM -0.2 °F -18.9 °F -9.6 °F 65% 30.13 in 10.0 mi NNW 13.8 mph 19.6 mph N/A   Clear
6:35 AM -0.9 °F -18.3 °F -10.5 °F 64% 30.14 in 10.0 mi NNW 11.5 mph 16.1 mph N/A   Clear
6:55 AM -1.3 °F -21.0 °F -11.2 °F 63% 30.14 in 10.0 mi NNW 15.0 mph 20.7 mph N/A   Clear
7:15 AM -1.3 °F -16.8 °F -10.3 °F 66% 30.16 in 10.0 mi NNW 9.2 mph 18.4 mph N/A   Clear
7:35 AM -0.8 °F -16.2 °F -10.1 °F 65% 30.17 in 10.0 mi NNW 9.2 mph - N/A   Clear
7:55 AM -0.4 °F -15.7 °F -10.8 °F 61% 30.19 in 10.0 mi NNW 9.2 mph - N/A   Clear
8:15 AM 0.1 °F -17.7 °F -11.0 °F 59% 30.20 in 10.0 mi NNW 12.7 mph 16.1 mph N/A   Clear
8:35 AM 0.5 °F -15.6 °F -10.3 °F 60% 30.21 in 10.0 mi NNW 10.4 mph - N/A   Clear
8:55 AM 0.5 °F -16.5 °F -11.6 °F 57% 30.21 in 10.0 mi North 11.5 mph 17.3 mph N/A   Clear
9:10 AM 1.4 °F -13.5 °F -10.7 °F 57% 30.23 in 10.0 mi NNW 9.2 mph 16.1 mph N/A   Clear
9:35 AM 1.8 °F -13.1 °F -11.2 °F 55% 30.23 in 10.0 mi NNW 9.2 mph - N/A   Clear
9:55 AM 2.5 °F -5.0 °F -11.0 °F 53% 30.23 in 10.0 mi North 3.5 mph - N/A   Clear
10:15 AM 3.0 °F - -11.7 °F 50% 30.22 in 10.0 mi Calm Calm - N/A   Clear
10:35 AM 3.4 °F - -12.1 °F 49% 30.23 in 10.0 mi Calm Calm - N/A   Clear
10:55 AM 4.1 °F - -10.8 °F 50% 30.22 in 10.0 mi Calm Calm - N/A   Clear
11:15 AM 4.6 °F - -10.7 °F 49% 30.23 in 10.0 mi Calm Calm - N/A   Clear
11:35 AM 5.5 °F -3.4 °F -10.7 °F 47% 30.22 in 10.0 mi NNW 4.6 mph - N/A   Clear
11:55 AM 5.5 °F - -11.0 °F 47% 30.22 in 10.0 mi Calm Calm - N/A   Clear
12:15 PM 6.4 °F - -9.6 °F 48% 30.22 in 10.0 mi Calm Calm - N/A   Clear
12:35 PM 7.0 °F - -8.5 °F 49% 30.21 in 10.0 mi Calm Calm - N/A   Clear
12:55 PM 7.3 °F - -9.6 °F 46% 30.20 in 10.0 mi Calm Calm - N/A   Clear
1:15 PM 8.1 °F - -9.2 °F 45% 30.18 in 10.0 mi Calm Calm - N/A   Clear
1:35 PM 9.1 °F - -8.3 °F 45% 30.18 in 10.0 mi Calm Calm - N/A   Clear
1:50 PM 9.5 °F - -8.7 °F 44% 30.17 in 10.0 mi Calm Calm - N/A   Clear
2:15 PM 9.9 °F - -8.7 °F 43% 30.17 in 10.0 mi Calm Calm - N/A   Clear
2:35 PM 10.0 °F - -9.8 °F 41% 30.17 in 10.0 mi Calm Calm - N/A   Clear
2:55 PM 11.3 °F - -8.9 °F 40% 30.16 in 10.0 mi Calm Calm - N/A   Clear
3:15 PM 10.8 °F - -8.1 °F 42% 30.16 in 10.0 mi Calm Calm - N/A   Clear
3:35 PM 10.9 °F - -7.4 °F 44% 30.15 in 10.0 mi Calm Calm - N/A   Clear
3:55 PM 11.1 °F - -6.3 °F 45% 30.15 in 10.0 mi Calm Calm - N/A   Clear
4:15 PM 10.6 °F - -7.8 °F 44% 30.14 in 10.0 mi Calm Calm - N/A   Clear
4:35 PM 9.3 °F - -8.1 °F 45% 30.14 in 10.0 mi Calm Calm - N/A   Clear
4:55 PM 8.8 °F - -9.2 °F 44% 30.14 in 10.0 mi Calm Calm - N/A   Clear
5:15 PM 7.0 °F - -9.0 °F 48% 30.14 in 10.0 mi Calm Calm - N/A   Clear
5:35 PM 6.8 °F - -8.1 °F 51% 30.14 in 10.0 mi Calm Calm - N/A   Scattered Clouds
5:55 PM 6.8 °F - -8.3 °F 50% 30.14 in 10.0 mi Calm Calm - N/A   Scattered Clouds
6:15 PM 6.6 °F - -8.0 °F 51% 30.13 in 10.0 mi Calm Calm - N/A   Scattered Clouds
6:35 PM 5.9 °F - -7.6 °F 54% 30.13 in 10.0 mi Calm Calm - N/A   Scattered Clouds
6:55 PM 5.7 °F - -7.8 °F 54% 30.13 in 10.0 mi Calm Calm - N/A   Scattered Clouds
7:15 PM 5.4 °F - -7.4 °F 56% 30.14 in 10.0 mi Calm Calm - N/A   Scattered Clouds
7:35 PM 5.0 °F - -6.9 °F 58% 30.14 in 10.0 mi Calm Calm - N/A   Scattered Clouds
7:55 PM 4.6 °F - -6.9 °F 59% 30.13 in 10.0 mi Calm Calm - N/A   Clear
8:15 PM 4.5 °F - -7.1 °F 59% 30.12 in 10.0 mi Calm Calm - N/A   Clear
8:35 PM 5.0 °F - -6.9 °F 58% 30.12 in 10.0 mi Calm Calm - N/A   Clear
8:55 PM 5.0 °F - -6.5 °F 59% 30.13 in 10.0 mi Calm Calm - N/A   Clear
9:15 PM 5.4 °F - -6.0 °F 60% 30.13 in 10.0 mi Calm Calm - N/A   Clear
9:35 PM 5.5 °F -1.5 °F -5.8 °F 60% 30.13 in 10.0 mi East 3.5 mph - N/A   Scattered Clouds
9:55 PM 5.2 °F -1.9 °F -5.3 °F 62% 30.11 in 10.0 mi East 3.5 mph - N/A   Scattered Clouds
10:15 PM 4.6 °F -2.5 °F -5.8 °F 62% 30.11 in 10.0 mi East 3.5 mph - N/A   Scattered Clouds
10:35 PM 4.6 °F - -4.9 °F 65% 30.11 in 10.0 mi Calm Calm - N/A   Scattered Clouds
10:55 PM 4.1 °F - -4.9 °F 66% 30.10 in 10.0 mi Calm Calm - N/A   Scattered Clouds
11:15 PM 3.7 °F - -4.9 °F 67% 30.10 in 10.0 mi Calm Calm - N/A   Scattered Clouds
11:35 PM 3.6 °F - -4.9 °F 68% 30.09 in 10.0 mi Calm Calm - N/A   Scattered Clouds
11:55 PM 3.7 °F - -4.4 °F 69% 30.09 in 10.0 mi Calm Calm - N/A   Clear